This demonstration page uses our WeatherBlox Daily Observations layout. Learn more.

Left ArrowRight Arrow

Hourly Observations for February 23, 2022

Temp ( °F °C ) Dew Point ( °F °C ) Humidity (%) Winds ( mph kmh ) Pressure ( in mb ) Visibility ( mi km ) Precip ( " mm )
12:53 am 00:53 Clear -21 -29.4 -26 -32.2 77 77 W 6 9 30.81 1043 10 16 0.00 0.00
1:53 am 01:53 Clear -20 -28.9 -25 -31.7 77 77 W 5 7 30.79 1043 10 16 0.00 0.00
2:53 am 02:53 Clear -22 -30 -27 -32.8 76 76 WSW 3 6 30.77 1042 10 16 0.00 0.00
3:53 am 03:53 Clear -22 -30 -28 -33.3 73 73 Calm 30.74 1041 10 16 0.00 0.00
4:53 am 04:53 Clear -22 -30 -27 -32.8 76 76 Calm 30.73 1041 10 16 0.00 0.00
5:53 am 05:53 Clear -22 -30 -26 -32.2 81 81 Calm 30.72 1040 10 16 0.00 0.00
6:53 am 06:53 Clear -22 -30 -27 -32.8 76 76 Calm 30.72 1040 10 16 0.00 0.00
7:53 am 07:53 Sunny -20 -28.9 -26 -32.2 73 73 ESE 3 6 30.70 1040 10 16 0.00 0.00
8:53 am 08:53 Sunny -14 -25.6 -19 -28.3 78 78 E 3 6 30.66 1038 10 16 0.00 0.00
9:53 am 09:53 Sunny -10 -23.3 -16 -26.7 74 74 E 3 6 30.63 1037 10 16 0.00 0.00
10:53 am 10:53 Sunny -7 -21.7 -14 -25.6 71 71 ENE 7 11 30.60 1036 10 16 0.00 0.00
11:53 am 11:53 Sunny -6 -21.1 -13 -25 71 71 E 7 11 30.57 1035 10 16 0.00 0.00
12:53 pm 12:53 Sunny -4 -20 -11 -23.9 71 71 E 8 13 30.52 1033 10 16 0.00 0.00
1:53 pm 13:53 Sunny -2 -18.9 -11 -23.9 65 65 NE 6 9 30.46 1032 10 16 0.00 0.00
2:53 pm 14:53 Sunny 0 -17.8 -10 -23.3 62 62 ENE 5 7 30.43 1031 10 16 0.00 0.00
3:53 pm 15:53 Sunny 2 -16.7 -8 -22.2 63 63 NNE 3 6 30.40 1030 10 16 0.00 0.00
4:53 pm 16:53 Sunny 1 -17.2 -8 -22.2 65 65 Calm 30.37 1028 10 16 0.00 0.00
5:53 pm 17:53 Sunny -3 -19.4 -10 -23.3 71 71 Calm 30.36 1028 10 16 0.00 0.00
6:53 pm 18:53 Clear -11 -23.9 -16 -26.7 78 78 Calm 30.37 1028 10 16 0.00 0.00
7:53 pm 19:53 Clear -11 -23.9 -16 -26.7 78 78 S 3 6 30.35 1028 10 16 0.00 0.00
8:53 pm 20:53 Clear -12 -24.4 -17 -27.2 78 78 W 3 6 30.34 1028 10 16 0.00 0.00
9:53 pm 21:53 Clear -11 -23.9 -17 -27.2 74 74 WSW 3 6 30.32 1027 10 16 0.00 0.00
10:53 pm 22:53 Clear -10 -23.3 -15 -26.1 78 78 SW 3 6 30.32 1027 10 16 0.00 0.00
11:53 pm 23:53 Clear -9 -22.8 -13 -25 82 82 SSW 5 7 30.30 1026 10 16 0.00 0.00

Powered by AerisWeather